| time (UTC) | temp C | wind direction | speed KPH | gust KPH | rain 1hr cm | rain 24hr cm | rain mn cm | humidity % | barometer mb |
| 20260504082000 | 8 | 239 | 0.0 | 1.6 | 0.00 | 0.00 | 0.00 | 80 | 1003.8 |
| 20260504081459 | 8 | 239 | 0.0 | 1.6 | 0.00 | 0.00 | 0.00 | 78 | 1003.8 |
| 20260504080958 | 8 | 239 | 0.0 | 1.6 | 0.00 | 0.00 | 0.00 | 78 | 1003.8 |
| 20260504080459 | 9 | 240 | 0.0 | 1.6 | 0.00 | 0.00 | 0.00 | 77 | 1003.7 |
| 20260504050500 | 13 | 290 | 0.0 | 4.8 | 0.00 | 0.00 | 0.00 | 69 | 1005.6 |
| 20260504050004 | 13 | 297 | 0.0 | 3.2 | 0.00 | 0.00 | 0.00 | 69 | 1005.5 |
| 20260504045500 | 13 | 271 | 0.0 | 3.2 | 0.00 | 0.00 | 0.00 | 69 | 1005.4 |
| 20260504044501 | 13 | 253 | 1.6 | 4.8 | 0.00 | 0.00 | 0.00 | 68 | 1005.4 |
| 20260504044000 | 13 | 288 | 0.0 | 4.8 | 0.00 | 0.00 | 0.00 | 68 | 1005.4 |
| 20260504043500 | 13 | 269 | 0.0 | 3.2 | 0.00 | 0.00 | 0.00 | 68 | 1005.4 |
| 20260504043000 | 13 | 245 | 0.0 | 3.2 | 0.00 | 0.00 | 0.00 | 68 | 1005.4 |
| 20260504042501 | 13 | 220 | 0.0 | 1.6 | 0.00 | 0.00 | 0.00 | 68 | 1005.4 |
| 20260504042000 | 13 | 168 | 0.0 | 1.6 | 0.00 | 0.00 | 0.00 | 68 | 1005.4 |
| 20260504041000 | 13 | 231 | 0.0 | 3.2 | 0.00 | 0.00 | 0.00 | 68 | 1005.4 |
| 20260504040501 | 14 | 220 | 0.0 | 3.2 | 0.00 | 0.00 | 0.00 | 67 | 1005.4 |
| 20260504040002 | 14 | 233 | 0.0 | 3.2 | 0.00 | 0.00 | 0.00 | 67 | 1005.4 |
| 20260504035502 | 14 | 221 | 0.0 | 3.2 | 0.00 | 0.00 | 0.00 | 67 | 1005.3 |
| 20260504035000 | 14 | 211 | 0.0 | 3.2 | 0.00 | 0.00 | 0.00 | 67 | 1005.4 |
| 20260504034500 | 14 | 244 | 0.0 | 3.2 | 0.00 | 0.00 | 0.00 | 66 | 1005.4 |
| 20260504034001 | 15 | 248 | 1.6 | 4.8 | 0.00 | 0.00 | 0.00 | 66 | 1005.4 |
| 20260504033500 | 15 | 229 | 0.0 | 4.8 | 0.00 | 0.00 | 0.00 | 66 | 1005.5 |
| 20260504033001 | 15 | 141 | 0.0 | 4.8 | 0.00 | 0.00 | 0.00 | 66 | 1005.5 |
| 20260504032500 | 15 | 226 | 1.6 | 6.4 | 0.00 | 0.00 | 0.00 | 66 | 1005.5 |
| 20260504032001 | 15 | 211 | 0.0 | 6.4 | 0.00 | 0.00 | 0.00 | 66 | 1005.6 |
| 20260504031000 | 15 | 207 | 0.0 | 1.6 | 0.00 | 0.00 | 0.00 | 65 | 1005.6 |
| 20260504030500 | 15 | 203 | 0.0 | 1.6 | 0.00 | 0.00 | 0.00 | 65 | 1005.7 |
| 20260504030005 | 15 | 239 | 0.0 | 1.6 | 0.00 | 0.00 | 0.00 | 65 | 1005.7 |
| 20260504025000 | 15 | 214 | 0.0 | 1.6 | 0.00 | 0.00 | 0.00 | 64 | 1005.8 |
| 20260504024001 | 15 | 127 | 0.0 | 1.6 | 0.00 | 0.00 | 0.00 | 63 | 1005.7 |
| 20260504023000 | 15 | 216 | 0.0 | 1.6 | 0.00 | 0.00 | 0.00 | 63 | 1005.7 |
| 20260504022500 | 15 | 216 | 0.0 | 1.6 | 0.00 | 0.00 | 0.00 | 62 | 1005.7 |
| 20260504021000 | 16 | 227 | 0.0 | 1.6 | 0.00 | 0.00 | 0.00 | 61 | 1005.5 |
| 20260504020502 | 16 | 227 | 0.0 | 3.2 | 0.00 | 0.00 | 0.00 | 60 | 1005.6 |
| 20260504020003 | 16 | 225 | 0.0 | 3.2 | 0.00 | 0.00 | 0.00 | 60 | 1005.5 |
| 20260504015500 | 16 | 228 | 0.0 | 1.6 | 0.00 | 0.00 | 0.00 | 59 | 1005.4 |
| 20260504015000 | 16 | 228 | 0.0 | 1.6 | 0.00 | 0.00 | 0.00 | 59 | 1005.5 |
| 20260504014000 | 16 | 233 | 0.0 | 0.0 | 0.00 | 0.00 | 0.00 | 58 | 1005.5 |
| 20260504013500 | 16 | 233 | 0.0 | 0.0 | 0.00 | 0.00 | 0.00 | 57 | 1005.5 |
| 20260504013000 | 17 | 233 | 0.0 | 0.0 | 0.00 | 0.00 | 0.00 | 56 | 1005.5 |
| 20260504012501 | 17 | 233 | 0.0 | 0.0 | 0.00 | 0.00 | 0.00 | 56 | 1005.3 |
| 20260504012000 | 17 | 231 | 0.0 | 0.0 | 0.00 | 0.00 | 0.00 | 55 | 1005.1 |
| 20260504011500 | 17 | 231 | 0.0 | 1.6 | 0.00 | 0.00 | 0.00 | 54 | 1005.1 |
| 20260504011000 | 17 | 233 | 0.0 | 1.6 | 0.00 | 0.00 | 0.00 | 54 | 1005.1 |
| 20260504010501 | 18 | 231 | 0.0 | 3.2 | 0.00 | 0.00 | 0.00 | 53 | 1005.1 |
| 20260504010004 | 18 | 232 | 0.0 | 3.2 | 0.00 | 0.00 | 0.00 | 52 | 1005.0 |
| 20260504005000 | 18 | 220 | 0.0 | 4.8 | 0.00 | 0.00 | 0.00 | 52 | 1005.0 |
| 20260504004500 | 18 | 256 | 0.0 | 4.8 | 0.00 | 0.00 | 0.00 | 51 | 1005.0 |
| 20260504004001 | 18 | 214 | 1.6 | 6.4 | 0.00 | 0.00 | 0.00 | 51 | 1005.1 |
| 20260504003500 | 18 | 239 | 0.0 | 6.4 | 0.00 | 0.00 | 0.00 | 52 | 1005.0 |
| 20260504003000 | 19 | 233 | 0.0 | 3.2 | 0.00 | 0.00 | 0.00 | 50 | 1005.1 |
| 20260504002001 | 19 | 243 | 1.6 | 6.4 | 0.00 | 0.00 | 0.00 | 50 | 1005.0 |
| 20260504001500 | 19 | 250 | 1.6 | 6.4 | 0.00 | 0.00 | 0.00 | 49 | 1005.0 |
| 20260504001000 | 19 | 234 | 3.2 | 8.0 | 0.00 | 0.00 | 0.00 | 49 | 1005.1 |
| 20260504000006 | 20 | 229 | 1.6 | 6.4 | 0.00 | 0.00 | 0.00 | 49 | 1005.1 |
| 20260503235500 | 20 | 311 | 3.2 | 8.0 | 0.00 | 0.00 | 0.00 | 48 | 1005.1 |
| 20260503235000 | 20 | 238 | 3.2 | 12.9 | 0.00 | 0.00 | 0.00 | 48 | 1005.2 |
| 20260503234501 | 20 | 221 | 4.8 | 12.9 | 0.00 | 0.00 | 0.00 | 48 | 1005.1 |
| 20260503234000 | 20 | 198 | 3.2 | 11.3 | 0.00 | 0.00 | 0.00 | 47 | 1005.1 |
| 20260503233500 | 20 | 229 | 3.2 | 11.3 | 0.00 | 0.00 | 0.00 | 47 | 1005.1 |
| 20260503233001 | 20 | 262 | 3.2 | 16.1 | 0.00 | 0.00 | 0.00 | 46 | 1005.2 |
| 20260503231000 | 20 | 297 | 4.8 | 11.3 | 0.00 | 0.00 | 0.00 | 45 | 1005.4 |
| 20260503224959 | 20 | 253 | 6.4 | 19.3 | 0.00 | 0.00 | 0.00 | 44 | 1005.5 |
| 20260503224459 | 21 | 271 | 4.8 | 16.1 | 0.00 | 0.00 | 0.00 | 45 | 1005.5 |
| 20260503223959 | 21 | 295 | 4.8 | 16.1 | 0.00 | 0.00 | 0.00 | 44 | 1005.5 |
| 20260503223500 | 21 | 216 | 6.4 | 16.1 | 0.00 | 0.00 | 0.00 | 45 | 1005.5 |
| 20260503222958 | 21 | 285 | 6.4 | 17.7 | 0.00 | 0.00 | 0.00 | 44 | 1005.5 |
| 20260503222459 | 20 | 214 | 6.4 | 16.1 | 0.00 | 0.00 | 0.00 | 44 | 1005.5 |
| 20260503221959 | 21 | 235 | 6.4 | 14.5 | 0.00 | 0.00 | 0.00 | 45 | 1005.4 |
| 20260503221500 | 21 | 281 | 6.4 | 14.5 | 0.00 | 0.00 | 0.00 | 45 | 1005.4 |
| 20260503220959 | 20 | 320 | 4.8 | 12.9 | 0.00 | 0.00 | 0.00 | 46 | 1005.5 |
| 20260503220500 | 20 | 108 | 4.8 | 16.1 | 0.00 | 0.00 | 0.00 | 46 | 1005.5 |
| 20260503220003 | 20 | 243 | 4.8 | 16.1 | 0.00 | 0.00 | 0.00 | 46 | 1005.5 |
| 20260503215501 | 20 | 245 | 4.8 | 12.9 | 0.00 | 0.00 | 0.00 | 47 | 1005.5 |
| 20260503215000 | 20 | 137 | 4.8 | 12.9 | 0.00 | 0.00 | 0.00 | 47 | 1005.6 |
| 20260503214500 | 20 | 215 | 6.4 | 16.1 | 0.00 | 0.00 | 0.00 | 46 | 1005.7 |
| 20260503214000 | 20 | 212 | 4.8 | 16.1 | 0.00 | 0.00 | 0.00 | 46 | 1005.8 |
| 20260503213501 | 20 | 53 | 6.4 | 17.7 | 0.00 | 0.00 | 0.00 | 46 | 1005.8 |
| 20260503213000 | 19 | 165 | 6.4 | 17.7 | 0.00 | 0.00 | 0.00 | 47 | 1006.0 |
| 20260503212001 | 19 | 237 | 4.8 | 19.3 | 0.00 | 0.00 | 0.00 | 48 | 1006.1 |
| 20260503211500 | 18 | 220 | 4.8 | 11.3 | 0.00 | 0.00 | 0.00 | 48 | 1006.1 |
| 20260503211002 | 18 | 195 | 6.4 | 14.5 | 0.00 | 0.00 | 0.00 | 47 | 1006.2 |
| 20260503210500 | 18 | 176 | 6.4 | 17.7 | 0.00 | 0.00 | 0.00 | 47 | 1006.4 |
| 20260503210005 | 19 | 188 | 6.4 | 17.7 | 0.00 | 0.00 | 0.00 | 47 | 1006.5 |
| 20260503205502 | 18 | 224 | 6.4 | 16.1 | 0.00 | 0.00 | 0.00 | 48 | 1006.7 |
| 20260503204500 | 18 | 165 | 6.4 | 17.7 | 0.00 | 0.00 | 0.00 | 47 | 1006.8 |
| 20260503203001 | 18 | 212 | 6.4 | 19.3 | 0.00 | 0.00 | 0.00 | 47 | 1007.1 |
| 20260503202500 | 18 | 261 | 6.4 | 17.7 | 0.00 | 0.00 | 0.00 | 45 | 1007.2 |
| 20260503202000 | 18 | 300 | 4.8 | 14.5 | 0.00 | 0.00 | 0.00 | 48 | 1007.3 |
| 20260503201500 | 18 | 270 | 4.8 | 19.3 | 0.00 | 0.00 | 0.00 | 47 | 1007.4 |
| 20260503201001 | 17 | 259 | 8.0 | 22.5 | 0.00 | 0.00 | 0.00 | 49 | 1007.5 |
| 20260503200500 | 17 | 208 | 8.0 | 22.5 | 0.00 | 0.00 | 0.00 | 49 | 1007.5 |
| 20260503200004 | 17 | 216 | 8.0 | 17.7 | 0.00 | 0.00 | 0.00 | 48 | 1007.7 |
| 20260503195501 | 17 | 205 | 6.4 | 17.7 | 0.00 | 0.00 | 0.00 | 48 | 1007.8 |
| 20260503195000 | 17 | 227 | 6.4 | 19.3 | 0.00 | 0.00 | 0.00 | 53 | 1007.8 |
| 20260503194500 | 17 | 217 | 8.0 | 19.3 | 0.00 | 0.00 | 0.00 | 54 | 1007.7 |
| 20260503194000 | 17 | 168 | 8.0 | 25.7 | 0.00 | 0.00 | 0.00 | 54 | 1008.0 |
| 20260503193501 | 17 | 188 | 8.0 | 24.1 | 0.00 | 0.00 | 0.00 | 55 | 1008.1 |
| 20260503193000 | 17 | 213 | 6.4 | 24.1 | 0.00 | 0.00 | 0.00 | 55 | 1008.3 |
| 20260503192500 | 16 | 237 | 6.4 | 16.1 | 0.00 | 0.00 | 0.00 | 57 | 1008.5 |
| 20260503192000 | 16 | 127 | 6.4 | 16.1 | 0.00 | 0.00 | 0.00 | 56 | 1008.6 |
| 20260503191001 | 16 | 110 | 6.4 | 14.5 | 0.00 | 0.00 | 0.00 | 56 | 1008.5 |
| 20260503190500 | 16 | 154 | 6.4 | 17.7 | 0.00 | 0.00 | 0.00 | 57 | 1008.5 |
| 20260503190003 | 16 | 259 | 8.0 | 17.7 | 0.00 | 0.00 | 0.00 | 56 | 1008.4 |
| 20260503185501 | 16 | 136 | 8.0 | 17.7 | 0.00 | 0.00 | 0.00 | 56 | 1008.4 |
| 20260503185000 | 16 | 191 | 8.0 | 17.7 | 0.00 | 0.00 | 0.00 | 56 | 1008.4 |
| 20260503184500 | 15 | 236 | 8.0 | 17.7 | 0.00 | 0.00 | 0.00 | 55 | 1008.5 |
| 20260503184000 | 15 | 147 | 8.0 | 17.7 | 0.00 | 0.00 | 0.00 | 56 | 1008.6 |
| 20260503183501 | 15 | 208 | 8.0 | 17.7 | 0.00 | 0.00 | 0.00 | 55 | 1008.7 |
| 20260503183000 | 15 | 238 | 6.4 | 14.5 | 0.00 | 0.00 | 0.00 | 56 | 1008.8 |
| 20260503182500 | 15 | 156 | 4.8 | 24.1 | 0.00 | 0.00 | 0.00 | 55 | 1008.9 |
| 20260503182002 | 15 | 224 | 6.4 | 19.3 | 0.00 | 0.00 | 0.00 | 58 | 1009.0 |
| 20260503181000 | 15 | 160 | 6.4 | 16.1 | 0.00 | 0.00 | 0.00 | 56 | 1009.4 |
| 20260503180501 | 15 | 250 | 6.4 | 20.9 | 0.00 | 0.00 | 0.00 | 58 | 1009.4 |
| 20260503180005 | 15 | 229 | 6.4 | 20.9 | 0.00 | 0.00 | 0.00 | 57 | 1009.4 |
| 20260503175500 | 14 | 68 | 6.4 | 17.7 | 0.00 | 0.00 | 0.00 | 58 | 1009.5 |
| 20260503175001 | 14 | 139 | 6.4 | 16.1 | 0.00 | 0.00 | 0.00 | 59 | 1009.6 |
| 20260503174500 | 14 | 139 | 8.0 | 12.9 | 0.00 | 0.00 | 0.00 | 60 | 1009.7 |
| 20260503173500 | 14 | 108 | 8.0 | 17.7 | 0.00 | 0.00 | 0.00 | 61 | 1009.9 |
| 20260503173000 | 13 | 158 | 6.4 | 16.1 | 0.00 | 0.00 | 0.00 | 62 | 1010.1 |
| 20260503172500 | 13 | 218 | 8.0 | 17.7 | 0.00 | 0.00 | 0.00 | 61 | 1010.1 |
| 20260503172000 | 13 | 150 | 8.0 | 17.7 | 0.00 | 0.00 | 0.00 | 62 | 1010.3 |
| 20260503171503 | 13 | 205 | 6.4 | 16.1 | 0.00 | 0.00 | 0.00 | 64 | 1010.5 |
| 20260503171000 | 13 | 124 | 6.4 | 14.5 | 0.00 | 0.00 | 0.00 | 65 | 1010.6 |
| 20260503170501 | 13 | 136 | 6.4 | 16.1 | 0.00 | 0.00 | 0.00 | 66 | 1010.9 |
| 20260503151000 | 11 | 222 | 8.0 | 20.9 | 0.00 | 0.00 | 0.00 | 66 | 1013.0 |
| 20260503150459 | 12 | 208 | 6.4 | 19.3 | 0.00 | 0.00 | 0.00 | 64 | 1013.0 |
| 20260503130959 | 8 | 218 | 3.2 | 11.3 | 0.00 | 0.00 | 0.00 | 66 | 1013.6 |
| 20260503130500 | 8 | 175 | 1.6 | 8.0 | 0.00 | 0.00 | 0.00 | 66 | 1013.5 |
| 20260503110459 | 7 | 142 | 1.6 | 6.4 | 0.00 | 0.00 | 0.00 | 67 | 1013.1 |